DELTA 1 R/B, 50

Orbit data source: Space-Track

DELTA 1 R/B, 50 is space debris in LEO originally from a launch on Fri, 12 Aug 1960 UTC launched from the Air Force Eastern Test Range (AFETR). Debris objects in space refer to the collection of defunct objects orbiting the Earth. Examples of debris include non-operational satellites, rocket bodies, and fragments generated from explosions, collisions, or faulty payload assembly.

Loading next visibility...
Identifier
50, 1960-009B
Orbit
LEO
Country
Flag of USUS
Related business
Manufacturer
ABL
Mission
Spacecraft
Bus & Motor
ALTAIR, Unknown motor
Mass
24 kg wet, 24 kg dry
Launch date (UTC)
1960-08-12 (65 years ago)
Launch vehicle
Unknown
Launch site
Air Force Eastern Test Range (AFETR)
Object type
Payload
Rocket body
Debris
Shape & HBR
Unknown
Radar Cross Section
Medium (>0.1 m² and <1 m²)

Expand to show TLE details & history
Last TLE update: 15 hours ago

TLE from 15 hours ago
0 DELTA 1 R/B
1 00050U 60009B   25348.76226083 -.00000118  00000-0 -31238-3 0  9998
2 00050  47.2332  14.1692 0113782 185.6386 174.3127 12.20161921915184
Epoch: 2025-12-14T18:17Z
TLE epoch observation values (Epoch: 2025-12-14T18:17:39.335Z)
Latitude
Longitude
16.08478°
Altitude
1,682.292 km
Speed
6.995 km/s
True Right ascension
00h 56m 40s
True Declination
0° 00' 00"
Sunlit
Object was in daylight at epoch
Visualization orbit readout
Latitude
Unknown
Longitude
Unknown
Altitude
Unknown
Speed
Unknown
Apparent Right ascension
Unknown
Apparent Declination
Unknown
Sunlit
N/A
Visualization observer readout
Local Sidereal Time
07:44:11
Azimuth
Unknown
Elevation
Unknown
Doppler factor
Unknown
Orbital elements
Apogee altitude
1,683.596 km
Perigee altitude
1,502.204 km
Semi-major axis
7,971.037 km
Eccentricity
0.01138
Inclination
47.2332°
RAAN
14.1692°
Arg. of periapsis
185.6386°
True anomaly
174.44011°
Mean anomaly
174.3127°
Eccentric anomaly
174.37658°
Mean motion
3.0498 °/min
Orbital period
118.04 mins
BSTAR
-0.00031238
Loading maneuver chart data...
Computing Atmospheric mass density...
Loading historical data...
Loading historical data...
Loading historical data...
Loading historical data...
Loading historical data...
Loading historical data...
Loading historical data...

Documentation

Showing up to 5 results
|